Location: Unspecified
(49.2170°N, 0.0000°E)
Time: 16:28:16
(UTC+00:00)

Envisat - Pass Details

Date: 03 December 2020
Orbit: 764 x 766 km, 98.1° (Epoch: 20 January)

Event Time Altitude Azimuth Distance (km) Brightness Sun altitude
Rises 18:42:56 0° 225° (SW) 3,225 7.0 -25.1°
Reaches altitude 10° 18:47:25 10° 262° (W) 2,307 6.5 -25.9°
Maximum altitude 18:48:36 11° 276° (W) 2,257 6.4 -26.1°
Drops below altitude 10° 18:49:47 10° 290° (WNW) 2,311 6.3 -26.2°
Sets 18:54:18 0° 327° (NNW) 3,246 6.6 -27.0°
